Flag Island, MN

2:02 PM CDT on March 26, 2017 (GMT -0500)
Flag Island

Weather History for KFGN - November, 2012

Change the Weather History Date:

Wednesday, November 21, 2012

  Actual Average Record
Temperature  
Mean Temperature 37 °F -  
Max Temperature 42 °F 26 °F 42 °F (2012)
Min Temperature 32 °F 17 °F -11 °F (1996)
Degree Days  
Heating Degree Days 28    
Moisture  
Dew Point 30 °F    
Average Humidity 78    
Maximum Humidity 87    
Minimum Humidity 61    
Precipitation  
Precipitation 0.00 in - - ()
Sea Level Pressure  
Sea Level Pressure 29.76 in    
Wind  
Wind Speed 4 mph (SE)    
Max Wind Speed 13 mph    
Max Gust Speed -    
Visibility 10 miles    
Events      
Averages and records for this station are not official NWS values.
T = Trace of Precipitation, MM = Missing Value Source: NWS Daily Summary

Daily Weather History Graph

Daily Weather History Graph

Search for Another Location

Airport or City:

Trip Planner

Search our weather history database for the weather conditions in past years. The results will help you decide how hot, cold, wet, or windy it might be!

Date:

Astronomy

Nov. 21, 2012 Rise Set
Actual Time 7:40 AM CST 4:30 PM CST
Civil Twilight 7:04 AM CST 5:06 PM CST
Nautical Twilight 6:25 AM CST 5:45 PM CST
Astronomical Twilight 5:47 AM CST 6:23 PM CST
Moon 1:17 PM CST (11/21) 12:26 AM CST (11/21)
Length of Visible Light 10h 01m
Length of Day
8h 50m
First Quarter, 62% of the Moon is Illuminated
Nov 21
First Quarter
Nov 28
Full
Dec 6
Last Quarter
Dec 13
New
Dec 19
First Quarter

Hourly Weather History & Observations

Time (CST) Temp. Windchill Dew Point Humidity Pressure Visibility Wind Dir Wind Speed Gust Speed Precip Events Conditions
12:13 AM 35.6 °F 27.1 °F 30.2 °F 81% 29.81 in 10.0 mi South 12.7 mph - N/A   Clear
12:33 AM 35.6 °F 27.1 °F 30.2 °F 81% 29.81 in 10.0 mi South 12.7 mph - N/A   Clear
12:54 AM 35.6 °F 28.6 °F 30.2 °F 81% 29.81 in 10.0 mi South 9.2 mph - N/A   Clear
1:13 AM 35.6 °F 31.7 °F 30.2 °F 81% 29.82 in 10.0 mi South 4.6 mph - N/A   Clear
1:33 AM 39.2 °F - 26.6 °F 61% 29.83 in 10.0 mi Calm Calm - N/A   Clear
1:54 AM 37.4 °F - 28.4 °F 70% 29.82 in 10.0 mi Calm Calm - N/A   Clear
2:13 AM 37.4 °F - 28.4 °F 70% 29.82 in 10.0 mi Calm Calm - N/A   Clear
2:33 AM 35.6 °F - 28.4 °F 75% 29.83 in 10.0 mi Calm Calm - N/A   Clear
2:54 AM 35.6 °F - 28.4 °F 75% 29.82 in 10.0 mi Calm Calm - N/A   Clear
3:13 AM 35.6 °F 32.8 °F 28.4 °F 75% 29.83 in 10.0 mi South 3.5 mph - N/A   Clear
3:33 AM 33.8 °F 30.8 °F 30.2 °F 87% 29.83 in 10.0 mi South 3.5 mph - N/A   Clear
3:54 AM 33.8 °F 29.6 °F 30.2 °F 87% 29.83 in 10.0 mi SSE 4.6 mph - N/A   Clear
4:13 AM 33.8 °F 29.6 °F 30.2 °F 87% 29.83 in 10.0 mi SSE 4.6 mph - N/A   Clear
4:33 AM 33.8 °F - 30.2 °F 87% 29.84 in 10.0 mi Calm Calm - N/A   Clear
4:54 AM 35.6 °F - 28.4 °F 75% 29.83 in 10.0 mi Calm Calm - N/A   Clear
5:13 AM 35.6 °F 32.8 °F 28.4 °F 75% 29.83 in 10.0 mi SE 3.5 mph - N/A   Clear
5:33 AM 33.8 °F - 28.4 °F 81% 29.84 in 10.0 mi Calm Calm - N/A   Clear
5:54 AM 33.8 °F - 28.4 °F 81% 29.83 in 10.0 mi Calm Calm - N/A   Clear
6:13 AM 33.8 °F - 28.4 °F 81% 29.84 in 10.0 mi Calm Calm - N/A   Clear
6:33 AM 33.8 °F - 28.4 °F 81% 29.84 in 10.0 mi Calm Calm - N/A   Clear
6:54 AM 32.0 °F - 28.4 °F 87% 29.84 in 10.0 mi Calm Calm - N/A   Clear
7:13 AM 32.0 °F - 28.4 °F 87% 29.85 in 10.0 mi Calm Calm - N/A   Clear
7:33 AM 32.0 °F - 28.4 °F 87% 29.86 in 10.0 mi Calm Calm - N/A   Clear
7:54 AM 32.0 °F - 28.4 °F 87% 29.86 in 10.0 mi Calm Calm - N/A   Clear
8:13 AM 32.0 °F - 28.4 °F 87% 29.85 in 10.0 mi Calm Calm - N/A   Clear
8:33 AM 32.0 °F - 28.4 °F 87% 29.86 in 10.0 mi Calm Calm - N/A   Clear
8:54 AM 32.0 °F 28.7 °F 28.4 °F 87% 29.86 in 10.0 mi North 3.5 mph - N/A   Clear
9:13 AM 32.0 °F - 28.4 °F 87% 29.86 in 10.0 mi Calm Calm - N/A   Clear
9:33 AM 33.8 °F - 28.4 °F 81% 29.85 in 10.0 mi Calm Calm - N/A   Clear
9:54 AM 33.8 °F - 28.4 °F 81% 29.85 in 10.0 mi Calm Calm - N/A   Clear
10:13 AM 32.0 °F - 28.4 °F 87% 29.85 in 10.0 mi Calm Calm - N/A   Clear
10:33 AM 33.8 °F 30.8 °F 28.4 °F 81% 29.84 in 10.0 mi NNW 3.5 mph - N/A   Clear
10:54 AM 33.8 °F 30.8 °F 28.4 °F 81% 29.84 in 10.0 mi NNW 3.5 mph - N/A   Clear
11:13 AM 35.6 °F - 30.2 °F 81% 29.84 in 10.0 mi Calm Calm - N/A   Clear
11:33 AM 35.6 °F - 30.2 °F 81% 29.83 in 10.0 mi Calm Calm - N/A   Clear
11:54 AM 35.6 °F 31.7 °F 30.2 °F 81% 29.82 in 10.0 mi SSE 4.6 mph - N/A   Clear
12:13 PM 35.6 °F 31.7 °F 30.2 °F 81% 29.82 in 10.0 mi South 4.6 mph - N/A   Clear
12:33 PM 35.6 °F 32.8 °F 30.2 °F 81% 29.82 in 10.0 mi SSW 3.5 mph - N/A   Clear
12:54 PM 37.4 °F - 30.2 °F 75% 29.81 in 10.0 mi Calm Calm - N/A   Clear
1:13 PM 35.6 °F - 30.2 °F 81% 29.80 in 10.0 mi Calm Calm - N/A   Clear
1:34 PM 37.4 °F - 30.2 °F 75% 29.79 in 10.0 mi Calm Calm - N/A   Clear
1:53 PM 37.4 °F 34.9 °F 30.2 °F 75% 29.79 in 10.0 mi SSE 3.5 mph - N/A   Clear
2:18 PM 35.6 °F 32.8 °F 30.2 °F 81% 29.79 in 10.0 mi SSE 3.5 mph - N/A   Clear
2:33 PM 35.6 °F 31.7 °F 30.2 °F 81% 29.78 in 10.0 mi SE 4.6 mph - N/A   Clear
2:53 PM 35.6 °F 32.8 °F 30.2 °F 81% 29.76 in 10.0 mi SSE 3.5 mph - N/A   Clear
3:13 PM 35.6 °F - 30.2 °F 81% 29.77 in 10.0 mi Calm Calm - N/A   Clear
3:34 PM 35.6 °F - 30.2 °F 81% 29.77 in 10.0 mi Calm Calm - N/A   Clear
3:58 PM 37.4 °F - 30.2 °F 75% 29.74 in 10.0 mi Calm Calm - N/A   Clear
4:13 PM 37.4 °F - 30.2 °F 75% 29.74 in 10.0 mi Calm Calm - N/A   Clear
4:34 PM 35.6 °F - 30.2 °F 81% 29.73 in 10.0 mi Calm Calm - N/A   Clear
4:53 PM 33.8 °F - 30.2 °F 87% 29.72 in 10.0 mi Calm Calm - N/A   Clear
5:13 PM 37.4 °F - 30.2 °F 75% 29.71 in 10.0 mi Calm Calm - N/A   Clear
5:34 PM 39.2 °F 37.0 °F 32.0 °F 75% 29.70 in 10.0 mi ENE 3.5 mph - N/A   Scattered Clouds
5:54 PM 39.2 °F 35.9 °F 32.0 °F 75% 29.70 in 10.0 mi East 4.6 mph - N/A   Mostly Cloudy
6:13 PM 39.2 °F - 32.0 °F 75% 29.69 in 10.0 mi Calm Calm - N/A   Scattered Clouds
6:34 PM 41.0 °F 38.0 °F 32.0 °F 70% 29.67 in 10.0 mi ENE 4.6 mph - N/A   Scattered Clouds
6:54 PM 41.0 °F 38.0 °F 32.0 °F 70% 29.66 in 10.0 mi East 4.6 mph - N/A   Clear
7:13 PM 42.8 °F 40.1 °F 32.0 °F 66% 29.65 in 10.0 mi East 4.6 mph - N/A   Clear
7:34 PM 41.0 °F - 32.0 °F 70% 29.66 in 10.0 mi Calm Calm - N/A   Clear
7:54 PM 42.8 °F 41.1 °F 32.0 °F 66% 29.66 in 10.0 mi East 3.5 mph - N/A   Clear
8:13 PM 41.0 °F 37.1 °F 32.0 °F 70% 29.63 in 10.0 mi East 5.8 mph - N/A   Clear
8:34 PM 41.0 °F 37.1 °F 33.8 °F 76% 29.62 in 10.0 mi East 5.8 mph - N/A   Clear
8:54 PM 42.8 °F 38.6 °F 33.8 °F 70% 29.61 in 10.0 mi East 6.9 mph - N/A   Clear
9:13 PM 41.0 °F 38.0 °F 33.8 °F 76% 29.61 in 10.0 mi East 4.6 mph - N/A   Clear
9:34 PM 41.0 °F 37.1 °F 32.0 °F 70% 29.60 in 10.0 mi ESE 5.8 mph - N/A   Clear
9:54 PM 41.0 °F 36.4 °F 33.8 °F 76% 29.58 in 10.0 mi East 6.9 mph - N/A   Clear
10:13 PM 41.0 °F 38.0 °F 33.8 °F 76% 29.57 in 10.0 mi East 4.6 mph - N/A   Clear
10:33 PM 41.0 °F 37.1 °F 33.8 °F 76% 29.56 in 10.0 mi ESE 5.8 mph - N/A   Clear
10:54 PM 41.0 °F 38.0 °F 33.8 °F 76% 29.55 in 10.0 mi East 4.6 mph - N/A   Clear
11:13 PM 41.0 °F 36.4 °F 32.0 °F 70% 29.54 in 10.0 mi ESE 6.9 mph - N/A   Clear
11:33 PM 41.0 °F 38.0 °F 33.8 °F 76% 29.54 in 10.0 mi ESE 4.6 mph - N/A   Clear
11:53 PM 41.0 °F 38.0 °F 33.8 °F 76% 29.54 in 10.0 mi ESE 4.6 mph - N/A   Clear